When you browse on this site, cookies collect data to enhance your experience and personalize the content and advertising you see.
Visit our Privacy Policy to learn more. By continuing to use the site, you agree to this use of cookies and data.

Stündliche Wetter Oyem

Heute, 13 August, Donnerstag

Zeit Temperatur Niederschläge Wind Luftdruck Luftfeuchtigkeit
00:00 +22°C° 0 mm 1 m/S 704 mmHg 98%
01:00 +21°C° 0 mm 1 m/S 704 mmHg 99%
02:00 +21°C° 0 mm 1 m/S 704 mmHg 98%
03:00 +21°C° 0 mm 1 m/S 704 mmHg 97%
04:00 +22°C° 0 mm 1 m/S 704 mmHg 96%
05:00 +22°C° 0 mm 1 m/S 704 mmHg 95%
06:00 +22°C° 0 mm 1 m/S 704 mmHg 94%
07:00 +22°C° 0 mm 1 m/S 705 mmHg 93%
08:00 +24°C° 0 mm 1 m/S 705 mmHg 85%
09:00 +26°C° 0 mm 1 m/S 705 mmHg 76%
10:00 +27°C° 0 mm 1 m/S 706 mmHg 68%
11:00 +28°C° 0.1 mm 1 m/S 705 mmHg 64%
12:00 +29°C° 0.1 mm 1 m/S 705 mmHg 61%
13:00 +30°C° 0.1 mm 1 m/S 704 mmHg 57%
14:00 +29°C° 0.7 mm 1 m/S 703 mmHg 64%
15:00 +28°C° 0.7 mm 1 m/S 703 mmHg 70%
16:00 +28°C° 0.7 mm 2 m/S 702 mmHg 77%
17:00 +26°C° 0.6 mm 1 m/S 702 mmHg 82%
18:00 +25°C° 0.6 mm 1 m/S 702 mmHg 88%
19:00 +23°C° 0.6 mm 1 m/S 703 mmHg 93%
20:00 +23°C° 0.1 mm 1 m/S 703 mmHg 95%
21:00 +23°C° 0.1 mm 1 m/S 704 mmHg 96%
22:00 +22°C° 0.1 mm 1 m/S 704 mmHg 97%
23:00 +22°C° 0 mm 1 m/S 704 mmHg 97%

Morgen, 14 August, Freitag

Zeit Temperatur Niederschläge Wind Luftdruck Luftfeuchtigkeit
00:00 +22°C° 0 mm 1 m/S 704 mmHg 98%
01:00 +21°C° 0 mm 1 m/S 703 mmHg 98%
02:00 +21°C° 0 mm 1 m/S 703 mmHg 98%
03:00 +21°C° 0 mm 1 m/S 703 mmHg 98%
04:00 +21°C° 0 mm 1 m/S 703 mmHg 98%
05:00 +21°C° 0 mm 1 m/S 703 mmHg 98%
06:00 +21°C° 0 mm 1 m/S 703 mmHg 97%
07:00 +21°C° 0 mm 1 m/S 703 mmHg 96%
08:00 +22°C° 0 mm 1 m/S 704 mmHg 94%
09:00 +22°C° 0 mm 1 m/S 704 mmHg 91%
10:00 +23°C° 0 mm 1 m/S 704 mmHg 88%
11:00 +25°C° 0 mm 1 m/S 704 mmHg 80%
12:00 +27°C° 0 mm 1 m/S 703 mmHg 71%
13:00 +28°C° 0 mm 1 m/S 703 mmHg 63%
14:00 +29°C° 0 mm 2 m/S 702 mmHg 61%
15:00 +30°C° 0 mm 2 m/S 702 mmHg 59%
16:00 +30°C° 0 mm 2 m/S 701 mmHg 57%
17:00 +28°C° 0.3 mm 2 m/S 701 mmHg 67%
18:00 +26°C° 0.3 mm 1 m/S 701 mmHg 77%
19:00 +24°C° 0.3 mm 1 m/S 701 mmHg 87%
20:00 +23°C° 0.1 mm 1 m/S 702 mmHg 90%
21:00 +23°C° 0.1 mm 1 m/S 703 mmHg 93%
22:00 +22°C° 0.1 mm 1 m/S 703 mmHg 96%
23:00 +22°C° 0 mm 1 m/S 703 mmHg 96%

übermorgen, 15 August, Samstag

Zeit Temperatur Niederschläge Wind Luftdruck Luftfeuchtigkeit
00:00 +22°C° 0 mm 1 m/S 703 mmHg 96%
01:00 +22°C° 0 mm 1 m/S 703 mmHg 96%
02:00 +21°C° 0 mm 1 m/S 703 mmHg 96%
03:00 +21°C° 0 mm 1 m/S 703 mmHg 96%
04:00 +21°C° 0 mm 1 m/S 702 mmHg 96%
05:00 +21°C° 0 mm 1 m/S 703 mmHg 95%
06:00 +21°C° 0 mm 1 m/S 703 mmHg 93%
07:00 +22°C° 0 mm 1 m/S 703 mmHg 92%
08:00 +23°C° 0 mm 1 m/S 704 mmHg 85%
09:00 +24°C° 0 mm 1 m/S 704 mmHg 78%
10:00 +26°C° 0 mm 1 m/S 705 mmHg 71%
11:00 +27°C° 0 mm 1 m/S 705 mmHg 68%
12:00 +27°C° 0 mm 1 m/S 704 mmHg 64%
13:00 +28°C° 0 mm 2 m/S 704 mmHg 60%
14:00 +28°C° 0 mm 2 m/S 703 mmHg 61%
15:00 +29°C° 0 mm 2 m/S 702 mmHg 61%
16:00 +29°C° 0 mm 2 m/S 701 mmHg 61%
17:00 +27°C° 0.1 mm 1 m/S 702 mmHg 69%
18:00 +25°C° 0.1 mm 1 m/S 702 mmHg 78%
19:00 +24°C° 0.1 mm 1 m/S 702 mmHg 86%
20:00 +23°C° 0.1 mm 1 m/S 702 mmHg 88%
21:00 +23°C° 0.1 mm 1 m/S 703 mmHg 91%
22:00 +21°C° 0.1 mm 2 m/S 703 mmHg 94%
23:00 +22°C° 0 mm 1 m/S 703 mmHg 95%

16 August, Sonntag

Zeit Temperatur Niederschläge Wind Luftdruck Luftfeuchtigkeit
00:00 +21°C° 0 mm 1 m/S 703 mmHg 96%
01:00 +21°C° 0 mm 1 m/S 703 mmHg 97%
02:00 +21°C° 0 mm 1 m/S 702 mmHg 97%
03:00 +21°C° 0 mm 1 m/S 702 mmHg 97%
04:00 +21°C° 0 mm 1 m/S 702 mmHg 96%
05:00 +21°C° 0 mm 1 m/S 702 mmHg 95%
06:00 +21°C° 0 mm 1 m/S 703 mmHg 94%
07:00 +21°C° 0 mm 1 m/S 703 mmHg 92%
08:00 +23°C° 0 mm 1 m/S 704 mmHg 86%
09:00 +24°C° 0 mm 1 m/S 704 mmHg 79%
10:00 +25°C° 0 mm 1 m/S 705 mmHg 73%
11:00 +26°C° 0 mm 1 m/S 704 mmHg 70%
12:00 +27°C° 0 mm 1 m/S 704 mmHg 66%
13:00 +28°C° 0 mm 1 m/S 703 mmHg 63%
14:00 +28°C° 0 mm 1 m/S 703 mmHg 61%
15:00 +29°C° 0 mm 1 m/S 702 mmHg 59%
16:00 +29°C° 0 mm 1 m/S 701 mmHg 58%
17:00 +27°C° 0.1 mm 1 m/S 702 mmHg 67%
18:00 +25°C° 0.1 mm 1 m/S 702 mmHg 77%
19:00 +24°C° 0.1 mm 1 m/S 702 mmHg 87%
20:00 +23°C° 0.1 mm 1 m/S 702 mmHg 90%
21:00 +22°C° 0.1 mm 1 m/S 703 mmHg 92%
22:00 +21°C° 0.1 mm 2 m/S 703 mmHg 95%
23:00 +22°C° 0 mm 1 m/S 703 mmHg 95%

17 August, Montag

Zeit Temperatur Niederschläge Wind Luftdruck Luftfeuchtigkeit
00:00 +21°C° 0 mm 1 m/S 703 mmHg 96%
01:00 +21°C° 0 mm 1 m/S 703 mmHg 96%
02:00 +21°C° 0 mm 1 m/S 703 mmHg 97%
03:00 +21°C° 0 mm 1 m/S 702 mmHg 97%
04:00 +21°C° 0 mm 1 m/S 702 mmHg 97%
05:00 +21°C° 0 mm 1 m/S 702 mmHg 96%
06:00 +21°C° 0 mm 1 m/S 703 mmHg 94%
07:00 +22°C° 0 mm 1 m/S 703 mmHg 92%
08:00 +23°C° 0 mm 1 m/S 704 mmHg 84%
09:00 +25°C° 0 mm 2 m/S 704 mmHg 75%
10:00 +27°C° 0 mm 2 m/S 705 mmHg 67%
11:00 +28°C° 0.2 mm 2 m/S 704 mmHg 65%
12:00 +29°C° 0.2 mm 2 m/S 704 mmHg 63%
13:00 +29°C° 0.2 mm 2 m/S 703 mmHg 61%
14:00 +29°C° 1.1 mm 1 m/S 702 mmHg 67%
15:00 +28°C° 1.1 mm 1 m/S 702 mmHg 74%
16:00 +27°C° 1.1 mm 1 m/S 701 mmHg 80%
17:00 +26°C° 1.1 mm 1 m/S 701 mmHg 85%
18:00 +24°C° 1.1 mm 1 m/S 702 mmHg 91%
19:00 +23°C° 1.1 mm 1 m/S 702 mmHg 96%
20:00 +23°C° 0.1 mm 1 m/S 702 mmHg 97%
21:00 +22°C° 0.1 mm 1 m/S 703 mmHg 97%
22:00 +22°C° 0.1 mm 1 m/S 703 mmHg 98%
23:00 +22°C° 0 mm 1 m/S 703 mmHg 98%

18 August, Dienstag

Zeit Temperatur Niederschläge Wind Luftdruck Luftfeuchtigkeit
00:00 +22°C° 0 mm 1 m/S 703 mmHg 98%
01:00 +21°C° 0 mm 1 m/S 703 mmHg 98%
02:00 +21°C° 0 mm 1 m/S 703 mmHg 98%
03:00 +21°C° 0 mm 1 m/S 703 mmHg 97%
04:00 +21°C° 0 mm 1 m/S 702 mmHg 97%
05:00 +21°C° 0 mm 1 m/S 703 mmHg 96%
06:00 +22°C° 0 mm 1 m/S 703 mmHg 96%
07:00 +22°C° 0 mm 1 m/S 703 mmHg 95%
08:00 +22°C° 0 mm 1 m/S 704 mmHg 92%
09:00 +23°C° 0 mm 1 m/S 704 mmHg 88%
10:00 +24°C° 0 mm 1 m/S 705 mmHg 85%
11:00 +25°C° 0.1 mm 1 m/S 704 mmHg 80%
12:00 +26°C° 0.1 mm 1 m/S 703 mmHg 76%
13:00 +27°C° 0.1 mm 1 m/S 703 mmHg 71%
14:00 +27°C° 0.1 mm 1 m/S 702 mmHg 72%
15:00 +27°C° 0.1 mm 1 m/S 702 mmHg 72%
16:00 +27°C° 0.1 mm 1 m/S 701 mmHg 73%
17:00 +26°C° 0.1 mm 1 m/S 701 mmHg 78%
18:00 +25°C° 0.1 mm 1 m/S 701 mmHg 84%
19:00 +24°C° 0.1 mm 1 m/S 701 mmHg 90%
20:00 +23°C° 0 mm 1 m/S 702 mmHg 92%
21:00 +22°C° 0 mm 1 m/S 702 mmHg 95%
22:00 +22°C° 0 mm 1 m/S 702 mmHg 98%
23:00 +21°C° 0 mm 1 m/S 702 mmHg 97%
Mehr zeigen